Content
SEND FEEDBACK

Daily
Averages
Monthly
Summary
Canada

QUEBEC CITY, QUEBEC


Home > North America > Canada > Quebec
Elevation: 239 feet     Latitude: 46 48N     Longitude: 071 23W

WEATHER
 
SELECT A DAY
Number of Records: 192,044;   Date Range: 6/30/96 - 7/27/14
 
SHARE

PRINT THIS DATA

[ ← Previous Day ]
WEATHER ALMANAC - MARCH 26, 2013
[ Next Day → ]
[ °C ]   °F
Weather ElementAverageHighLow
Temperature34.7 °F45 °F (5:00 pm)24 °F (2:00 am)
Dewpoint22.4 °F31 °F (8:00 pm) (7:00 pm)
Humidity69.1 %96 % (11:00 pm)32 % (5:00 pm)
Barometer26.33 in29.77 in (9:00 pm) (7:00 pm)
Wind Speed5.1 mph12.7 mph (3:00 pm)
Weather ElementAverage
Visibility16.9 mi
Wind DirectionSSE (149.7 °)

Weather ElementTotal
Precipitation---
Heating Degree Days30.5 (Base 65)
Averaged from 35 records on March 26, 2013
WEATHER CONDITIONS BREAKOUT
WIND DIRECTION BREAKOUT
WEATHER BY HOUR - MARCH 26, 2013
[ °C ]   °F
Local TimeTemperatureDewpointHumidityBarometerVisibilityWind DirectionWind SpeedGust SpeedPrecipitationEventsConditions
1:00 AM26.6 °F23.0 °F86 %29.75 in15.0 miCalmScattered Clouds
2:00 AM24.0 °F22.0 °F88 %29.74 inNorth2.3 mph
2:00 AM28.4 °F21.2 °F74 %29.74 in15.0 miNorth (10°)4.6 mphScattered Clouds
3:00 AM28.4 °F19.4 °F69 %29.73 in15.0 miNE (40°)4.6 mphPartly Cloudy
4:00 AM28.4 °F19.4 °F69 %29.73 in15.0 miNorth (10°)5.8 mphPartly Cloudy
5:00 AM25.0 °F20.0 °F74 %29.73 inEast (80°)3.5 mph
5:00 AM28.4 °F21.2 °F74 %29.73 in15.0 miENE (60°)3.5 mphScattered Clouds
6:00 AM28.4 °F21.2 °F74 %29.74 in15.0 miNorth (360°)2.3 mphMostly Cloudy
7:00 AM26.6 °F21.2 °F80 %29.74 in25.0 miWSW (250°)2.3 mphMostly Cloudy
8:00 AM28.0 °F23.0 °F76 %29.74 inCalm
8:00 AM30.2 °F21.2 °F69 %29.75 in25.0 miSW (220°)4.6 mphMostly Cloudy
9:00 AM32.0 °F24.8 °F75 %29.74 in20.0 miSW (220°)5.8 mphMostly Cloudy
10:00 AM33.8 °F24.8 °F70 %29.74 in20.0 miSouth (180°)5.8 mphMostly Cloudy
11:00 AM37.0 °F27.0 °F55 %29.72 inSouth (190°)8.1 mph
11:00 AM35.6 °F26.6 °F70 %29.74 in20.0 miSouth (170°)8.1 mphMostly Cloudy
12:00 PM39.2 °F24.8 °F56 %29.73 in20.0 miSSW (200°)5.8 mphMostly Cloudy
1:00 PM41.0 °F24.8 °F53 %29.72 in20.0 miSouth (190°)10.4 mphMostly Cloudy
1:32 PM41.0 °F0.0 °F15.0 miSouth (180°)6.9 mphRainLight Rain Showers
2:00 PM41.0 °F29.0 °F50 %29.69 inSouth (180°)4.6 mph
2:00 PM41.0 °F24.8 °F53 %29.72 in15.0 miSouth (190°)8.1 mphRainLight Rain Showers
2:24 PM41.0 °F0.0 °F15.0 miSouth (170°)8.1 mphMostly Cloudy
2:26 PM41.0 °F0.0 °F15.0 miSouth (170°)8.1 mphMostly Cloudy
3:00 PM41.0 °F26.6 °F57 %29.70 in15.0 miSW (220°)12.7 mphMostly Cloudy
4:00 PM42.8 °F28.4 °F57 %29.70 in15.0 miCalmMostly Cloudy
5:00 PM45.0 °F25.0 °F32 %29.68 inNNW (330°)8.1 mph
5:00 PM44.6 °F24.8 °F46 %29.70 in15.0 miNW (310°)5.8 mphMostly Cloudy
6:00 PM39.2 °F30.2 °F70 %29.72 in20.0 miENE (60°)5.8 mphMostly Cloudy
7:00 PM39.2 °F30.2 °F70 %29.73 in15.0 miENE (70°)5.8 mphMostly Cloudy
8:00 PM36.0 °F31.0 °F75 %29.75 inENE (70°)4.6 mph
8:00 PM37.4 °F30.2 °F75 %29.76 in15.0 miENE (60°)5.8 mphMostly Cloudy
9:00 PM35.6 °F30.2 °F81 %29.77 in15.0 miNNE (20°)3.5 mphMostly Cloudy
10:00 PM35.6 °F30.2 °F81 %29.76 in15.0 miENE (70°)3.5 mphPartly Cloudy
10:40 PM32.0 °F0.0 °F15.0 miWest (270°)2.3 mphPartly Cloudy
11:00 PM29.0 °F28.0 °F96 %29.75 inWest (270°)3.5 mph
11:00 PM32.0 °F28.4 °F87 %29.76 in15.0 miWest (270°)3.5 mphPartly Cloudy
Hourly data recorded from CYQB, located miles away from Quebec City, Quebec







STORIES FROM OUR PARTNERS